Location: Gwatt
(46.7204°N, 7.6223°E)
Time: 07:50:51
(UTC+00:00)

S-56A Canister/Altair - Pass Details

Date: 23 January 2021
Orbit: 632 x 2501 km, 38.9° (Epoch: 08 March)

Event Time Altitude Azimuth Distance (km) Brightness Sun altitude
Rises 05:38:38 0° 262° (W) 2,986 - -14.4°
Reaches altitude 10° 05:40:57 10° 252° (WSW) 2,164 - -14.1°
Exits shadow 05:41:40 14° 246° (WSW) 1,942 9.1 -13.9°
Maximum altitude 05:45:17 31° 190° (S) 1,400 8.9 -13.3°
Drops below altitude 10° 05:50:54 10° 130° (SE) 2,844 11.6 -12.4°
Sets 05:54:24 0° 121° (ESE) 4,106 12.9 -11.8°
